Regional Weather Roundup
Issued by NWS

Home | Current Version | Previous Version | Text Only | Print | Product List | Glossary Off
Versions: 1 2 3 4 5 6 7 8 9 10 11 12 13 14 15 16 17 18 19 20 21 22 23 24 25 26 27 28 29 30 31 32 33 34 35 36 37 38 39 40 41 42 43 44 45 46 47 48 49 50

000
ASUS43 KOAX 290010
RWRNE

WEATHER ROUNDUP FOR NEBRASKA
NATIONAL WEATHER SERVICE OMAHA NE
700 PM CDT THU APR 28 2016

NOTES: SATELLITE DATA IS BEING USED TO AUGMENT CLOUD COVER ABOVE
       12000 FEET.
       "FAIR" INDICATES FEW OR NO CLOUDS BELOW 12,000 FEET WITH NO
       SIGNIFICANT WEATHER AND/OR OBSTRUCTIONS TO VISIBILITY.

  * THESE STATIONS DO NOT REPORT WEATHER SUCH AS RAIN...SNOW OR FOG.

NEZ001>004-019>022-054>056-290100-
NEBRASKA PANHANDLE

CITY           SKY/WX    TMP DP  RH WIND       PRES   REMARKS
SCOTTSBLUFF    LGT RAIN  37  34  89 E5        30.05S WCI  33
6HR MIN TEMP:  36; 6HR MAX TEMP:  45; 6HR PCP:  0.07;

ALLIANCE       LGT RAIN  37  33  85 W3        30.05R
6HR MIN TEMP:  37; 6HR MAX TEMP:  43; 6HR PCP:  0.02;

CHADRON        CLOUDY    41  35  79 NE10      30.08R
6HR MIN TEMP:  40; 6HR MAX TEMP:  45; 6HR PCP: TRACE;

KIMBALL        CLOUDY    37  32  83 E6        30.02S WCI  32
SIDNEY         CLOUDY    41  33  73 N6        30.04R
6HR MIN TEMP:  37; 6HR MAX TEMP:  43; 6HR PCP: TRACE;

$$

NEZ057>060-069>072-079>082-290100-
SOUTHWEST NEBRASKA

CITY           SKY/WX    TMP DP  RH WIND       PRES   REMARKS
NORTH PLATTE   CLOUDY    46  38  73 N7        30.04R
6HR MIN TEMP:  45; 6HR MAX TEMP:  48; 6HR PCP:  0.05;

IMPERIAL       CLOUDY    46  37  71 N5        30.04R
6HR MIN TEMP:  44; 6HR MAX TEMP:  47; 6HR PCP:  0.01;

LEXINGTON      CLOUDY    46  40  81 N8        30.03S
MCCOOK         CLOUDY    49  38  65 N8        30.03R
6HR MIN TEMP:  48; 6HR MAX TEMP:  52; 6HR PCP: TRACE;

OGALLALA       CLOUDY    44  34  67 CALM      30.05R
$$

NEZ005>010-023>029-035>040-094-290100-
NORTH CENTRAL NEBRASKA

CITY           SKY/WX    TMP DP  RH WIND       PRES   REMARKS
VALENTINE      CLOUDY    41  34  76 N7        30.07S
6HR MIN TEMP:  40; 6HR MAX TEMP:  44;

AINSWORTH      CLOUDY    41  36  83 N5        30.07R
BROKEN BOW     CLOUDY    46  39  76 NE7       30.03S
6HR MIN TEMP:  44; 6HR MAX TEMP:  47;

O`NEILL        CLOUDY    42  40  91 N8        30.07S FOG
ORD            CLOUDY    46  39  76 N8        30.04R
6HR MIN TEMP:  45; 6HR MAX TEMP:  47;

THEDFORD       CLOUDY    43  38  81 NE9       30.07R
$$

NEZ041-046>049-061>064-073>077-083>087-290100-
SOUTH CENTRAL NEBRASKA

CITY           SKY/WX    TMP DP  RH WIND       PRES   REMARKS
GRAND ISLAND   CLOUDY    48  40  73 N8        30.04R
6HR MIN TEMP:  47; 6HR MAX TEMP:  50;

AURORA         CLOUDY    48  42  79 N14       30.03R
HASTINGS       CLOUDY    49  41  74 N10       30.03R
6HR MIN TEMP:  45; 6HR MAX TEMP:  50;

HEBRON         CLOUDY    51  43  72 N5        30.02R
HOLDREGE       CLOUDY    47  41  79 N9        30.03R
KEARNEY *      PTSUNNY   46  39  76 N9        30.04R
YORK           CLOUDY    48  41  76 N13G21    30.03R
$$

NEZ011>018-030>034-042>045-290100-
NORTHEAST NEBRASKA

CITY           SKY/WX    TMP DP  RH WIND       PRES   REMARKS
NORFOLK        CLOUDY    45  39  79 NW10      30.03F
6HR MIN TEMP:  45; 6HR MAX TEMP:  47;

ALBION         CLOUDY    44  38  81 N9        30.05R
BLAIR          CLOUDY    47  41  80 N13       30.01F
COLUMBUS *     CLOUDY    46  36  66 NW13      30.04S
FREMONT        CLOUDY    47  41  80 N8        30.03F
TEKAMAH        CLOUDY    47  41  80 N10       30.04R
6HR MIN TEMP:  47; 6HR MAX TEMP:  49;

WAYNE          CLOUDY    44  40  85 N7        30.06R
$$

NEZ050>053-065>068-078-088>093-290100-
SOUTHEAST NEBRASKA

CITY           SKY/WX    TMP DP  RH WIND       PRES   REMARKS
LINCOLN        CLOUDY    51  41  68 N14       30.02R
6HR MIN TEMP:  51; 6HR MAX TEMP:  53;

OMAHA EPPLEY   CLOUDY    50  42  74 N13       30.02F
6HR MIN TEMP:  49; 6HR MAX TEMP:  52;

BEATRICE       CLOUDY    51  43  73 N12       30.01R
FALLS CITY     CLOUDY    53  43  68 N7        30.01R
6HR MIN TEMP:  53; 6HR MAX TEMP:  56;

NEBRASKA CITY  CLOUDY    51  43  74 N10       29.99F
PLATTSMOUTH    CLOUDY    49  42  76 N7        30.00F
$$

NEZ044-045-051>053-067-290100-
OMAHA AREA

CITY           SKY/WX    TMP DP  RH WIND       PRES   REMARKS
OMAHA EPPLEY   CLOUDY    50  42  74 N13       30.02F
6HR MIN TEMP:  49; 6HR MAX TEMP:  52;

BLAIR          CLOUDY    47  41  80 N13       30.01F
FREMONT        CLOUDY    47  41  80 N8        30.03F
MILLARD        CLOUDY    49  41  72 N8        30.02S
OFFUTT AFB     CLOUDY    50  42  74 N14       30.01S
PLATTSMOUTH    CLOUDY    49  42  76 N7        30.00F
WAHOO          CLOUDY    48  42  80 N14       30.02S
$$




USA.gov is the U.S. government's official web portal to all federal, state and local government web resources and services.